COSMOS 374

Satellite information

Favourite Embed

Satellite Type and Status

PAYLOADIN ORBIT

Key statistics

Satellite COSMOS 374 at a glance.

Uptime

20041

Days in orbit

Revolutions

≈ 13.0

Per day

Orbit

MEO

Medium Earth Orbit

Inclination

62.9

Latest

Satellite identification and parameters

Extended collection of information and parameters for COSMOS 374.

Object identification

Identified? True

Debris? False

Object name: COSMOS 374

International designator: 1970-089A

Object number (NORAD): 4594

Object ID (CCSDS): 4594

Country: COMMONWEALTH OF INDEPENDENT STATES (CIS)

Current information (Y/N): Y

RCS size: MEDIUM

Orbital parameters

Period: 111.068 minutes

Inclination: 62.9347 deg

SMA: 7653.944 km

Apoapsis: 2013.674 km

Periapsis: 537.944 km

RAAN: 103.289 deg

Eccentricy: 0.09640323

Argument of periapsis: 34.2574 deg

Mean anomaly: 331.6926 deg

Mean motion: 12.96506805 rev/day

Mean motion (dot): 0.0000098 rev/day2

B* drag term: 0.00039202415 1/REarth

Two-line elements (TLE)

Creation date: Sept. 3, 2025, 10:15 a.m.

Reference frame: TEME

Reference center: EARTH

Epoch: Sept. 3, 2025, 12:36 a.m. UTC

TLE line 0: 0 COSMOS 374

TLE line 1: 1 04594U 70089A 25246.02549443 .00000980 00000-0 39202-3 0 9992

TLE line 2: 2 04594 62.9347 103.2890 0964032 34.2574 331.6926 12.96506805631672

Live tracking on map

Real-time ground track for satellite COSMOS 374.

In-orbit conjunctions

A list of the most updated potential collisions computed for object COSMOS 374.

Target Orbit TCA Probability of collision Miss distance Type
COSMOS 1867 COOLANT LEO 2024-08-31 09:54:04 0.0001918091 49.0 (m) DEBRIS

Associated space launch

The I2P satellites were the first soviet coorbital ASAT system.

COSMOS 374 was lifted into orbit during the mission ‘Tsiklon-2 | I2P 4’, on board a Tsiklon-2 space rocket.

The launch took place on Oct. 23, 1970, 4:42 a.m. from 90/20.

For more information about the launch, click the button.

Launch to space Tsiklon-2 | I2P 4
Tsiklon-2 | I2P 4

Agency: N/A

Status: Launch Successful

Launch date: Oct. 23, 1970, 4:42 a.m. UTC

Rocket: Tsiklon-2

Launch pad: 90/20

Location: Baikonur Cosmodrome, Republic of Kazakhstan

...

Latest news about this satellite

There are no fresh news available about this satellite. Check back as we update our databases every day.


Newsletter sign-up

Weekly statistics, charts and insights to help you stay on top of the space industry.